Regional Weather Roundup
Issued by NWS

Home | Current Version | Previous Version | Graphics & Text | Print | Product List | Glossary On
Versions: 1 2 3 4 5 6 7 8 9 10 11 12 13 14 15 16 17 18 19 20 21 22 23 24 25 26 27 28 29 30 31 32 33 34 35 36 37 38 39 40 41 42 43 44 45 46 47 48 49 50
223
ASUS45 KABQ 090610
RWRNM
NEW MEXICO REGIONAL WEATHER ROUNDUP
NATIONAL WEATHER SERVICE ALBUQUERQUE NM
1100 PM MST MON FEB 08 2016

NOTE: "FAIR" MEANS FEW OR NO CLOUDS BELOW 12,000 FEET AGL WITH NO
       SIGNIFICANT WEATHER OR OBSTRUCTIONS TO VISION.

      THIS PRODUCT IS RELEASED AS TWO VERSIONS.  ONE VERSION NEAR
      THE TOP OF THE HOUR CONTAINING PRELIMINARY DATA FROM ALBUQUERQUE
      AND OTHER STATIONS.  A FINAL VERSION WITH ADDITIONAL DATA IS
      ISSUED ABOUT 10 MINUTES AFTER THE HOUR.

NMZ501-503-504-510>518-090700-
NORTHWEST PLATEAU/NORTHCENTRAL MOUNTAINS

CITY           SKY/WX    TMP DP  RH WIND       PRES   REMARKS
FARMINGTON     CLOUDY    28  22  78 CALM      30.41S
6HR MIN TEMP:  27; 6HR MAX TEMP:  51;

LOS ALAMOS     CLOUDY    40  19  41 CALM      30.43S
SANTA FE       CLOUDY    28  19  69 N5        30.40S WCI  23
6HR MIN TEMP:  26; 6HR MAX TEMP:  54;

TAOS           CLOUDY    27  18  69 N6        30.43S WCI  20
ANGEL FIRE     FAIR       8   5  87 CALM      30.44F

$$
NMZ402-403-502-505>509-090700-
WESTCENTRAL MOUNTAINS/SOUTHWEST MOUNTAINS

CITY           SKY/WX    TMP DP  RH WIND       PRES   REMARKS
GALLUP         CLEAR     27  21  78 CALM      30.45S
6HR MIN TEMP:  24; 6HR MAX TEMP:  53;

GRANTS         CLEAR     24  16  71 NW14      30.47S WCI  12
SILVER CITY      N/A     36  19  51 NE8       30.40S WCI  29

$$
NMZ407-409-411-412-090700-
SOUTHERN DESERTS

CITY           SKY/WX    TMP DP  RH WIND       PRES   REMARKS
LORDSBURG      FAIR      39  19  45 S8        30.35R WCI  34
DEMING         CLEAR     39  16  39 NE8       30.37R WCI  33
6HR MIN TEMP:  37; 6HR MAX TEMP:  63;

LAS CRUCES     CLEAR     36  16  43 CALM      30.38S
HOLLOMAN AFB   CLOUDY    33  11  40 E2        30.37R
ALAMOGORDO     CLOUDY    37  14  38 N7        30.38R WCI  32
T OR C         CLEAR     40  15  36 W7        30.37R
6HR MIN TEMP:  40; 6HR MAX TEMP:  61;


$$
NMZ519>523-090700-
CENTRAL VALLEYS/CENTRAL HIGHLANDS

CITY           SKY/WX    TMP DP  RH WIND       PRES   REMARKS
ALBUQUERQUE    CLOUDY    36  21  54 CALM      30.40S
6HR MIN TEMP:  36; 6HR MAX TEMP:  56;

DOUBLE EAGLE   CLOUDY    40  22  50 NW13      30.40F WCI  32
MORIARTY ARPT  FAIR      23  17  77 CALM      30.43S
6HR MIN TEMP:  23; 6HR MAX TEMP:  55;

CLINES CORNERS CLOUDY    28  16  60 VRB3      30.39F
6HR MIN TEMP:  28; 6HR MAX TEMP:  48;

BELEN          FAIR      37  20  49 N10       30.41S WCI  30
6HR MIN TEMP:  32; 6HR MAX TEMP:  58;

SOCORRO        FAIR      41  16  36 NW9       30.41R
6HR MIN TEMP:  39; 6HR MAX TEMP:  59;


$$
NMZ524>526-539-540-090700-
SOUTHCENTRAL MOUNTAINS

CITY           SKY/WX    TMP DP  RH WIND       PRES   REMARKS
RUIDOSO          N/A     32  14  47 S10       30.45R WCI  24

$$
NMZ527>531-090700-
NORTHEAST HIGHLANDS/NORTHEAST PLAINS

CITY           SKY/WX    TMP DP  RH WIND       PRES   REMARKS
LAS VEGAS      CLOUDY    28  17  63 S13       30.40F WCI  17
6HR MIN TEMP:  26; 6HR MAX TEMP:  42;

RATON          CLOUDY    23  18  81 NE5       30.39F WCI  17
6HR MIN TEMP:  23; 6HR MAX TEMP:  48;

CLAYTON        CLOUDY    32  20  61 W10       30.37S WCI  24
6HR MIN TEMP:  31; 6HR MAX TEMP:  45;


$$
NMZ532>537-090700-
EASTCENTRAL PLAINS

CITY           SKY/WX    TMP DP  RH WIND       PRES   REMARKS
TUCUMCARI      CLOUDY    30  16  56 W6        30.40R WCI  24
6HR MIN TEMP:  28; 6HR MAX TEMP:  52;

CANNON AFB     CLOUDY    26  14  60 N6        30.40S WCI  20
6HR MIN TEMP:  26; 6HR MAX TEMP:  50;

CLOVIS AIRPORT CLOUDY    27  16  63 N7        30.41S WCI  19

$$
NMZ028-029-538-090700-
SOUTHEAST PLAINS

CITY           SKY/WX    TMP DP  RH WIND       PRES   REMARKS
ROSWELL        CLOUDY    30  15  53 W7        30.43R WCI  23
6HR MIN TEMP:  30; 6HR MAX TEMP:  51;

ARTESIA        CLOUDY    32  14  47 SW6       30.44R WCI  26
CARLSBAD       CLOUDY    29  15  56 W6        30.42S WCI  23
6HR MIN TEMP:  28; 6HR MAX TEMP:  50;

HOBBS          CLOUDY    32  14  47 W8        30.42S WCI  25


$$




USA.gov is the U.S. government's official web portal to all federal, state and local government web resources and services.